Home   Weather   Alajuela   Past weeks

Flag for Costa Rica Past Weather in Alajuela, Costa Rica — Yesterday and Last 2 Weeks

Now
81 °F

Partly sunny.


Feels Like: 82 °F
Forecast: 69 / 79 °F
Wind: 6 mph from Southeast

Location: Juan Santamaria

Current Time: Jun 27, 2017 at 11:34:09 am

Latest Report: Jun 27, 2017 at 11:00 am


Visibility: N/A

Pressure: 30.03 "Hg (26.94 "Hg at 955m altitude)

Humidity: 54%

Dew Point: 63 °F

Location of AlajuelaLocation

Past Weather in Alajuela — Graph

°F

Alajuela Temperature Yesterday

Maximum temperature yesterday: 82 °F (at 12:00 pm)
Minimum temperature yesterday: 68 °F (at 1:00 am)
Average temperature yesterday: 72 °F

High & Low Weather Summary for the Past Weeks

 TemperatureHumidityPressure
High86 °F (Jun 25, 1:00 pm)100% (Jun 12, 5:00 pm)30.08 "Hg (Jun 12, 5:00 pm)
Low66 °F (Jun 18, 12:00 am)45% (Jun 24, 3:00 pm)29.90 "Hg (Jun 20, 3:00 am)
Average72 °F87%29.99 "Hg
* Reported Jun 12 10:00 am — Jun 27 10:00 am, Alajuela. Weather by CustomWeather, © 2017

Note: Actual official high and low records may vary slightly from our data, if they occured in-between our weather recording intervals... More about our weather records

Advertising

Alajuela Weather History for the Previous 24 Hours

Scroll right to see more
 ConditionsComfort  
Time TempWeatherWind HumidityBarometerVisibility
10:00 am
Tue, Jun 27
79 °FPartly sunny.8 mph65%30.04 "HgN/A
9:00 am77 °FPartly sunny.10 mph65%30.03 "HgN/A
8:00 am75 °FScattered clouds.6 mph69%30.02 "HgN/A
7:00 am70 °FSunny.2 mph83%30.03 "Hg10 mi
6:00 am70 °FLight fog.5 mph83%30.01 "HgN/A
5:00 am68 °FClear.6 mph94%29.99 "Hg10 mi
4:00 am68 °FLight fog.5 mph94%30.01 "HgN/A
3:00 am68 °FPassing clouds.3 mph100%30.02 "HgN/A
2:00 am70 °FPassing clouds.2 mph94%30.01 "HgN/A
1:00 am68 °FPartly cloudy.2 mph100%30.02 "HgN/A
12:00 am68 °FFog.3 mph100%30.03 "Hg3 mi
11:00 pm
Mon, Jun 26
70 °FPassing clouds.No wind94%30.04 "HgN/A
10:00 pm68 °FPassing clouds.3 mph100%30.04 "HgN/A
9:00 pm72 °FPassing clouds.5 mph83%30.02 "HgN/A
8:00 pm70 °FPassing clouds.2 mph100%30.02 "HgN/A
7:00 pm72 °FPassing clouds.5 mph88%30.01 "HgN/A
6:00 pm72 °FPassing clouds.2 mph94%30.00 "HgN/A
5:00 pm72 °FBroken clouds.6 mph100%29.97 "HgN/A
4:00 pm75 °FScattered showers. Broken clouds.7 mph89%29.97 "HgN/A
3:00 pm75 °FScattered showers. Broken clouds.9 mph89%29.98 "HgN/A
2:00 pm77 °FScattered showers. Broken clouds.10 mph83%29.98 "HgN/A
1:00 pm82 °FBroken clouds.12 mph58%29.99 "HgN/A
12:00 pm82 °FBroken clouds.3 mph58%30.00 "HgN/A
11:00 am79 °FPartly sunny.3 mph70%30.02 "HgN/A
Weather by CustomWeather, © 2017

See weather overviewHow to use our weather pages